Home   Weather   Chernobyl   Past weeks

Flag for Ukraine Past Weather in Chernobyl, Ukraine — Yesterday and Last 2 Weeks

Now
25 °F

Overcast.


Feels Like: 15 °F
Forecast: 19 / 29 °F
Wind: 10 mph from West

Location: Hostomel

Current Time: Jan 19, 2017 at 1:06:56 pm

Latest Report: Jan 19, 2017 at 12:30 pm


Visibility: N/A

Pressure: 30.63 "Hg

Humidity: 74%

Dew Point: 18 °F

Location of ChernobylLocation

Past Weather in Chernobyl — Graph

°F

Chernobyl Temperature Yesterday

Maximum temperature yesterday: 25 °F (at 1:30 pm)
Minimum temperature yesterday: 12 °F (at 3:00 am)
Average temperature yesterday: 18 °F

High & Low Weather Summary for the Past Weeks

 TemperatureHumidityPressure
High37 °F (Jan 14, 9:30 am)100% (Jan 4, 2:00 pm)30.69 "Hg (Jan 4, 2:00 pm)
Low-2 °F (Jan 7, 6:00 am)60% (Jan 15, 3:00 pm)29.39 "Hg (Jan 4, 5:00 pm)
Average20 °F89%30.02 "Hg
* Reported Jan 4 12:06 pm — Jan 19 12:00 pm, Chernobyl, Weather by CustomWeather, © 2017

Note: Actual official high and low records may vary slightly from our data, if they occured in-between our weather recording intervals... More about our weather records

Advertising

Chernobyl Weather History for the Previous 24 Hours

Scroll right to see more
 ConditionsComfort  
Time TempWeatherWind HumidityBarometerVisibility
12:00 pm
Thu, Jan 19
25 °FLight snow. Overcast.8 mph86%30.63 "HgN/A
11:30 am25 °FLight snow. Overcast.8 mph100%30.66 "Hg4 mi
11:00 am25 °FLight snow. Ice fog.6 mph100%30.66 "Hg3 mi
10:30 am23 °FLight snow. Ice fog.6 mph100%30.66 "Hg3 mi
10:00 am23 °FLight snow. Ice fog.3 mph100%30.66 "Hg2 mi
9:30 am21 °FLight snow. Ice fog.3 mph100%30.66 "Hg2 mi
9:00 am21 °FLight snow. Ice fog.3 mph100%30.66 "Hg2 mi
8:30 am21 °FLight snow. Ice fog.1 mph100%30.66 "Hg2 mi
8:00 am19 °FLight snow. Ice fog.No wind100%30.66 "Hg2 mi
7:30 am19 °FIce fog.No wind100%30.66 "Hg2 mi
7:00 am19 °FIce fog.3 mph100%30.66 "Hg2 mi
6:30 am19 °FSnow flurries. Passing clouds.3 mph100%30.66 "Hg1 mi
6:00 am19 °FIce fog.3 mph100%30.66 "Hg2 mi
5:30 am19 °FIce fog.3 mph100%30.66 "Hg2 mi
5:00 am18 °FSnow flurries. Passing clouds.3 mph100%30.66 "Hg1 mi
4:30 am18 °FLight snow. Passing clouds.1 mph100%30.66 "Hg1 mi
4:00 am18 °FIce fog.1 mph100%30.66 "Hg1 mi
3:30 am18 °FIce fog.3 mph100%30.66 "Hg1 mi
3:00 am19 °FIce fog.1 mph100%30.69 "Hg1 mi
2:30 am18 °FIce fog.No wind100%30.69 "Hg0 mi
2:00 am18 °FIce fog.1 mph100%30.69 "Hg1 mi
1:30 am19 °FIce fog.1 mph100%30.69 "Hg1 mi
1:00 am19 °FIce fog.1 mph100%30.69 "Hg1 mi
12:30 am21 °FIce fog.No wind100%30.69 "Hg1 mi
12:00 am21 °FSnow flurries. Passing clouds.No wind100%30.69 "Hg1 mi
11:30 pm
Wed, Jan 18
21 °FLight snow. Passing clouds.No wind100%30.69 "Hg1 mi
11:00 pm21 °FSnow flurries. Overcast.1 mph100%30.69 "Hg1 mi
10:30 pm19 °FSnow flurries. Overcast.1 mph100%30.69 "Hg1 mi
10:00 pm19 °FSnow flurries. Overcast.1 mph100%30.69 "Hg1 mi
9:30 pm19 °FSnow flurries. Overcast.No wind100%30.69 "Hg1 mi
8:00 pm21 °FSnow flurries. Overcast.No wind100%30.69 "Hg1 mi
7:30 pm21 °FIce fog.No wind100%30.69 "Hg1 mi
6:00 pm19 °FIce fog.No wind100%30.69 "Hg2 mi
5:30 pm21 °FPassing clouds.1 mph100%30.69 "Hg3 mi
5:00 pm21 °FIce fog.3 mph100%30.69 "Hg3 mi
4:30 pm23 °FClear.1 mph100%30.69 "Hg10 mi
4:00 pm25 °FSunny.No wind100%30.69 "Hg10 mi
3:30 pm25 °FSunny.No wind100%30.66 "Hg10 mi
3:00 pm25 °FClear.No wind100%30.66 "Hg4 mi
2:30 pm25 °FIce fog.No wind100%30.66 "Hg3 mi
2:00 pm25 °FIce fog.No wind100%30.66 "Hg3 mi
1:30 pm25 °FIce fog.No wind100%30.66 "Hg2 mi
1:00 pm23 °FIce fog.No wind100%30.66 "Hg2 mi
Weather by CustomWeather, © 2017

See weather overviewHow to use our weather pages